Weather in Pozhnia

Ukraine / Sumi District     50°30′45″N   35°20′21″E
temp.,
°C
wind,
m/s
gust,
m/s
humid.,
%
clouds,
%
prec.,
mm/h
press.,
hPa
HPBL,
m
27 october, wed
wed2700:00+2ssw38516 0.0 1029160
03:00+1ssw385126 0.0 1029148
06:000ssw310535 0.0 1027196
09:00+2ssw512530 0.0 1027312
12:00+8sw710520 0.0 1025778
15:00+10sw685621 0.0 10231074
18:00+9wsw586198 0.0 1023462
21:00+7wsw3773100 0.0 1023203
28 october, thu
thu2800:00+5w34818 0.0 102467
03:00+4w2283100 0.0 102335
06:00+4wsw3587100 0.0 1023100
09:00+6sw41080100 0.1 1023298
12:00+8sw51375100 0.6 1021469
15:00+11w5107092 0.6 1020735
18:00+9wnw498698 0.1 1021436
21:00+9nw4108791 0.1 1022457
29 october, fri
fri2900:00+7nw36934 0.0 1023116
03:00+8nnw379226 0.0 1024244
06:00+5n36915 0.0 1026110
09:00+6nne37805 0.0 1028204
12:00+10ene356710 0.0 1029700
15:00+12e345814 0.0 10291002
18:00+8e22720 0.0 102923
21:00+6ese34850 0.0 103172
30 october, sat
sat3000:00+5ese33890 0.0 103251
03:00+4se22910 0.0 103226
06:00+4se22930 0.0 103318
09:00+5se24870 0.0 1034115
12:00+11sse34620 0.0 1033549
15:00+12sse34510 0.0 1032856
18:00+9se33630 0.0 103230
21:00+7se33670 0.0 103326
31 october, sun
sun3100:00+6se22720 0.0 103322
03:00+5se22760 0.0 103312
05:00+4ese22840 0.0 103215
08:00+5ese26800 0.0 1032157
11:00+11se46560 0.0 1031608
14:00+12ese45460 0.0 1028770
17:00+9e34620 0.0 102859
20:00+7ese38720 0.0 1028153